Regional Weather Roundup
Issued by NWS

Home | Current Version | Previous Version | Text Only | Print | Product List | Glossary On
Versions: 1 2 3 4 5 6 7 8 9 10 11 12 13 14 15 16 17 18 19 20 21 22 23 24 25 26 27 28 29 30 31 32 33 34 35 36 37 38 39 40 41 42 43 44 45 46 47 48 49 50
089
ASUS44 KLIX 201001
RWRLA
LOUISIANA WEATHER ROUNDUP
NATIONAL WEATHER SERVICE NEW ORLEANS LA
500 AM CDT SUN APR 20 2014

NOTE: "FAIR" INDICATES FEW OR NO CLOUDS BELOW 12,000 FEET WITH NO
      SIGNIFICANT WEATHER AND/OR OBSTRUCTIONS TO VISIBILITY.
      SKY/WX - SKY CONDITION AND SIGNIFICANT WEATHER.
      TMP - AIR TEMPERATURE.    DP   - DEWPOINT TEMPERATURE.
      RH  - RELATIVE HUMIDITY.  PRES - PRESSURE.
      HX  - HEAT INDEX.         WCI  - WIND CHILL INDEX.

*  THESE STATIONS ARE NOT NWS OR FAA STATIONS AND ARE NOT UNDER
   NWS QUALITY CONTROL.

LAZ040-048-061>063-065-066-069-201100-
SOUTHEAST LOUISIANA

CITY           SKY/WX    TMP DP  RH WIND       PRES   REMARKS
N.O. AUDUBON     N/A     61  58  88 MISG        N/A
N.O. INTL ARPT CLEAR     59  57  93 W3        30.12S
N.O. LAKEFRONT CLEAR     65  58  78 NE9       30.13S
N.O. DOWNTOWN* FAIR      66  54  63 N5        30.13S
SLIDELL        CLEAR     52  50  93 CALM      30.13R
BATON ROUGE    CLEAR     54  51  90 CALM      30.13S
BOOTHVILLE     CLEAR     61  59  93 N3        30.13R
BELLE CHASSE   CLEAR     54  51  90 CALM      30.12R
BOGALUSA*        N/A     51  48  89 CALM      30.15S
GALLIANO*      NOT AVBL
NEW ROADS*     NOT AVBL
GONZALES*      FAIR      55  55 100 CALM      30.13R
HAMMOND*       NOT AVBL
HOUMA*         FOG       56  54  93 CALM      30.12S VSB 1/4
PORT FOURCHON* SUNNY     66  63  88 W7        30.14R

$$

LAZ041-044-053-054-201100-
SOUTHWEST LOUISIANA

CITY           SKY/WX    TMP DP  RH WIND       PRES   REMARKS
LAKE CHARLES   CLEAR     56  55  97 N3        30.14S FOG
LAFAYETTE      CLEAR     59  54  83 CALM      30.14S
PATTERSON      CLEAR     55  55 100 CALM      30.16S
SALT POINT       N/A     66  63  90 CALM      30.12F
NEW IBERIA     CLEAR     57  54  89 CALM      30.14S
CHENAULT AIRPK NOT AVBL

$$

LAZ027-028-201100-
CENTRAL LOUISIANA

CITY           SKY/WX    TMP DP  RH WIND       PRES   REMARKS
FORT POLK      CLEAR     54  52  93 CALM      30.15R
ALEXANDRIA INT CLEAR     55  54  96 CALM      30.13S
ALEXANDRIA     CLEAR     52  50  93 CALM      30.14S

$$

LAZ001-002-201100-
NORTHWEST LOUISIANA

CITY           SKY/WX    TMP DP  RH WIND       PRES   REMARKS
SHREVEPORT     MOCLDY    56  53  90 CALM      30.14S
BARKSDALE AFB  NOT AVBL
DTN SHREVEPORT PTCLDY    56  54  93 CALM      30.14S

$$

LAZ014-016-201100-
NORTHEAST LOUISIANA

CITY           SKY/WX    TMP DP  RH WIND       PRES   REMARKS
MONROE         FOG       55  54  96 CALM      30.16S VSB 1/2
TALLULAH       PTCLDY    57  55  93 CALM      30.15R

$$




USA.gov is the U.S. government's official web portal to all federal, state and local government web resources and services.